Location: Bottenau
(48.5138°N, 8.0462°E)
Time: 10:25:53
(UTC+00:00)

Cosmos 968 Rocket - Pass Details

Date: 18 April 2021
Orbit: 740 x 771 km, 74.0° (Epoch: 05 May)

Event Time Altitude Azimuth Distance (km) Brightness Sun altitude
Exits shadow 23:24:12 46° 51° (NE) 1,039 4.3 -30.3°
Drops below altitude 10° 23:28:01 10° 29° (NNE) 2,323 6.7 -30.3°
Sets 23:30:25 0° 26° (NNE) 3,252 7.7 -30.3°
